Regional Weather Roundup
Issued by NWS

Home | Current Version | Previous Version | Graphics & Text | Print | Product List | Glossary On
Versions: 1 2 3 4 5 6 7 8 9 10 11 12 13 14 15 16 17 18 19 20 21 22 23 24 25 26 27 28 29 30 31 32 33 34 35 36 37 38 39 40 41 42 43 44 45 46 47 48 49 50
097
ASUS45 KSLC 292310
RWRUT

UTAH REGIONAL WEATHER ROUNDUP
NATIONAL WEATHER SERVICE SALT LAKE CITY UT
500 PM MDT MON AUG 29 2016

UTZ001>011-023>025-300000-

NORTHERN UTAH

CITY           SKY/WX    TMP DP  RH WIND       PRES   REMARKS
BRIGHAM CITY     N/A     93  10   4 NW7       30.13F
HILL AFB       SUNNY     89  31  12 N13       30.17F
LOGAN          SUNNY     92  22   8 VRB7      30.14F
OGDEN          SUNNY     92  27   9 N10       30.14F
PROVO AIRPORT  MOSUNNY  N/A N/A N/A VRB6      30.16R
SALT LAKE CITY MOSUNNY   94  28   9 N12       30.12F
VERNAL         SUNNY     91  29  11 N6        30.16F
WENDOVER       MOSUNNY   90  34  13 SE12      30.15F
HEBER CITY     MOSUNNY   88  30  12 W7        30.18S
WEST JORDAN    SUNNY     90  38  16 NW13      30.16S

$$

UTZ012>022-026-027-300000-

SOUTHERN/CENTRAL UTAH

CITY           SKY/WX    TMP DP  RH WIND       PRES   REMARKS
BLANDING       MOSUNNY   77  42  28 W15G25    30.31S
BRYCE CANYON   PTSUNNY   75  34  22 S9        30.37F
CEDAR CITY     MOSUNNY   90  29  11 MISG      30.20S
DELTA          SUNNY     90  27  10 W9        30.15F
MILFORD        NOT AVBL
MOAB/CYNLANDS  SUNNY     91  37  15 N8        30.09F
PRICE          MOSUNNY   90  25   9 E8        30.21F
ST GEORGE      PTCLDY    99  39  12 CALM      30.00F HX  94

$$

REGIONAL REPORTS     COLORADO/ARIZONA

CITY           SKY/WX    TMP DP  RH WIND       PRES   REMARKS
CRAIG, CO      CLOUDY    82  31  15 VRB3      30.27F
GRAND JUNCTION CLOUDY    84  41  21 E8        30.17F
RIFLE          CLOUDY    82  40  22 CALM      30.22F
MONTROSE       MOSUNNY   74  43  32 N3        30.27F
CORTEZ         CLOUDY    73  51  46 CALM      30.25F
PAGE, AZ       SUNNY     90  37  15 N8G16     30.11F
GRAND CANYON   MOSUNNY   79  43  27 NE14G22   30.31S
KINGMAN        SUNNY     97  41  14 N8        30.03F HX  92
FLAGSTAFF      SUNNY     74  39  28 N12G21    30.31F

$$

REGIONAL REPORTS    NEVADA/IDAHO/WYOMING

CITY           SKY/WX    TMP DP  RH WIND       PRES   REMARKS
LAS VEGAS, NV  MOSUNNY  102  28   7 CALM      29.93F HX  95
ELY            SUNNY     85  21   9 CALM      30.24F
ELKO           SUNNY     91  18   7 W6        30.16F
POCATELLO, ID  SUNNY     89  28  11 N5        30.16F
BURLEY         CLOUDY    88  41  19 NE5       30.10F
EVANSTON, WY   SUNNY     82  21  10 MISG      30.34F
ROCK SPRINGS   SUNNY     82  21  10 E6G17     30.32F

$$




USA.gov is the U.S. government's official web portal to all federal, state and local government web resources and services.